Miscellaneous Local Product
Issued by NWS Hastings, NE

Home | Current Version | Previous Version | Graphics & Text | Print | Product List | Glossary On
Versions: 1 2 3 4 5 6 7 8 9 10 11 12 13 14 15 16 17 18 19 20 21 22 23 24 25 26 27 28 29 30 31 32 33 34 35 36 37 38 39 40 41 42 43 44 45 46 47 48 49 50
000
AXUS43 KGID 210802
MISGRI

GID CWA HOURLY WEATHER ROUNDUP
NATIONAL WEATHER SERVICE HASTINGS NE
200 AM CST TUE NOV 21 2017

NOTE: "FAIR" INDICATES FEW OR NO CLOUDS BELOW 12,000 FEET WITH NO
SIGNIFICANT WEATHER AND/OR OBSTRUCTIONS TO VISIBILITY.

...SOUTH CENTRAL NEBRASKA...

CITY           SKY/WX    TMP DP  RH WIND       PRES   REMARKS
GRAND ISLAND   PTCLDY    36  26  67 W7        29.77R WCI  30
KEARNEY        CLOUDY    41  25  53 NW7       29.78R
HASTINGS       PTCLDY    39  23  52 N5        29.77R
ORD            PTCLDY    36  26  67 NW12      29.78R WCI  28
YORK           CLOUDY    36  23  60 CALM      29.76R
AURORA         CLOUDY    32  23  70 NW7       29.77R WCI  26
LEXINGTON      CLOUDY    38  28  66 NW5       29.79R WCI  35
HOLDREGE       CLOUDY    44  28  53 NW7       29.78R
HEBRON         MOCLDY    39  28  64 W3        29.75S

...NEBRASKA PANHANDLE...

CITY           SKY/WX    TMP DP  RH WIND       PRES   REMARKS
CHADRON        MOCLDY    40  27  59 NE16      29.93R WCI  31
ALLIANCE       PTCLDY    47  27  45 NW15      29.84R
SCOTTSBLUFF    PTCLDY    51  27  39 W18G29    29.87R
SIDNEY         CLOUDY    43  18  36 W12       29.87R

...WESTERN AND NORTH CENTRAL NEBRASKA...

CITY           SKY/WX    TMP DP  RH WIND       PRES   REMARKS
VALENTINE      CLOUDY    42  27  55 NE10      29.88R
AINSWORTH      CLOUDY    40  28  61 N15       29.86R WCI  32
ONEILL         CLOUDY    42  27  55 N12G18    29.83R
BROKEN BOW     CLOUDY    36  27  69 CALM      29.78R
IMPERIAL       CLOUDY    55  27  34 NW12      29.83R
NORTH PLATTE   MOCLDY    32  27  81 CALM      29.81R
MCCOOK         MOCLDY    47  26  44 CALM      29.81R

...EASTERN NEBRASKA...

CITY           SKY/WX    TMP DP  RH WIND       PRES   REMARKS
NORFOLK        CLOUDY    43  26  51 N20       29.77R
SO SIOUX CITY  MOCLDY    41  27  57 NW17      29.77R
TEKAMAH        CLOUDY    33  25  72 N9        29.75R WCI  25
COLUMBUS       CLOUDY    35  25  66 N7        29.77R WCI  29
ALBION         CLOUDY    37  26  67 NW9       29.78R WCI  30
OMAHA EPPLEY   MOCLDY    35  27  72 NW3       29.73R
OFFUTT AFB     PTCLDY    33  28  79 NW5       29.72R WCI  29
MILLARD        CLOUDY    37  30  76 CALM      29.74R
LINCOLN        CLEAR     32  25  75 CALM      29.76R
NEBRASKA CITY  PTCLDY    41  28  60 NW10      29.73S
BEATRICE       CLOUDY    32  25  76 W3        29.74S
FALLS CITY     CLOUDY    44  28  53 W6        29.72R

...NORTHERN KANSAS...

CITY           SKY/WX    TMP DP  RH WIND       PRES   REMARKS
GOODLAND       CLOUDY    45  21  38 W7        29.85R
HILL CITY      MOCLDY    49  25  39 N9        29.78S
NORTON         SUNNY     41  18  38 CALM      29.78R
SMITH CENTER   CLEAR     45  25  45 NW7       29.77R
HAYS           CLOUDY    47  24  40 N9        29.75F
RUSSELL        MOCLDY    42  27  55 NW6       29.74S
CONCORDIA      CLOUDY    46  27  47 NW9       29.73R
SALINA         PTCLDY    50  28  42 CALM      29.73F
TOPEKA         CLOUDY    50  32  50 S6        29.74S



USA.gov is the U.S. government's official web portal to all federal, state and local government web resources and services.